CAPE
1412 1408 1028 653 675 909 783 444 305 264 175 204 362 452 426 347 243 117 19 5 0 0 0 0 0 2 1 0 0 0 0 4 10 10 9 14 12 8 4 3 5 17 38
1461 1579 1165 975 676 967 694 353 249 219 163 169 386 537 429 304 179 65 4 0 0 0 0 0 3 5 5 5 0 0 0 0 0 6 21 25 16 7 13 6 4 6 21
1265 1615 1376 1195 689 846 736 380 302 264 183 262 513 569 448 230 98 26 0 0 0 0 0 0 0 0 0 12 18 15 1 0 0 0 0 4 5 8 9 17 14 14 25
907 639 1360 1298 645 427 389 500 320 290 194 338 602 618 419 217 61 10 1 0 0 0 0 0 0 0 0 0 0 0 0 0 0 0 0 0 3 8 3 5 1 10 22
184 53 259 1093 680 354 223 582 495 437 364 659 814 612 421 192 64 19 1 0 0 0 0 0 0 0 0 0 0 0 0 0 0 0 0 0 1 9 6 3 3 18 12
150 66 112 313 569 448 43 243 518 162 267 649 817 591 386 137 30 2 0 0 0 0 0 0 0 0 0 0 0 0 0 0 0 0 0 0 1 8 7 7 13 10 12
478 846 666 458 38 303 430 332 108 125 253 737 785 553 341 89 22 6 0 0 0 0 0 0 0 0 0 0 0 0 0 0 0 0 0 0 1 8 9 10 7 2 2
484 196 20 10 0 14 267 314 7 2 180 739 751 507 302 108 17 0 0 0 0 0 0 0 0 0 0 0 0 0 0 0 0 0 0 0 7 7 8 6 6 3 1
246 18 6 1 0 2 0 87 239 123 356 546 536 447 279 46 0 0 0 0 0 0 0 0 0 0 0 0 0 0 0 0 0 0 0 0 7 7 7 8 9 9 9
77 7 2 3 0 0 0 1 92 109 308 375 306 279 131 0 0 0 0 0 0 0 0 0 0 0 0 0 0 0 0 0 0 0 0 0 3 2 3 7 7 9 4
11 0 0 2 0 0 0 0 0 89 196 206 210 143 48 0 0 0 0 0 0 0 0 0 0 0 0 0 0 0 0 0 0 0 0 0 0 1 2 6 5 5 3
31 2 2 2 1 0 2 3 0 0 85 102 97 45 14 0 0 0 0 0 0 0 0 0 0 0 0 0 0 0 0 0 0 0 0 0 0 1 1 2 4 2 1
5 3 0 2 2 2 2 2 24 1 0 9 63 60 22 0 0 0 0 0 0 0 0 0 0 0 0 0 0 0 0 0 0 0 0 0 0 1 1 1 3 4 0
0 2 2 1 1 1 4 0 0 0 0 0 9 52 3 0 0 0 0 0 0 0 0 0 0 0 0 0 0 0 0 0 0 0 0 0 0 0 1 2 1 1 0
0 2 1 1 0 0 0 0 0 0 0 0 0 4 2 0 0 0 0 0 0 0 0 0 0 0 0 0 0 0 0 0 0 0 0 0 0 0 1 2 4 2 0
1 0 3 1 0 0 0 0 0 0 0 0 5 1 0 0 0 0 0 0 0 0 0 0 0 0 0 0 0 0 0 0 0 0 0 0 0 0 0 2 0 0 0
1 1 1 2 0 0 0 0 0 3 0 8 13 0 0 0 0 0 0 0 0 0 0 0 0 0 0 0 0 0 0 0 0 0 0 0 0 0 0 0 0 0 1
1 1 1 1 0 0 0 0 6 0 0 26 59 46 4 3 0 0 0 0 0 0 0 0 0 0 0 0 0 0 0 0 0 0 0 0 0 0 0 0 0 0 0
1 2 2 1 0 0 0 0 4 0 0 23 40 70 59 73 36 9 20 25 3 0 0 0 0 0 0 0 0 0 0 0 0 0 0 0 0 0 0 0 0 0 0
1 1 1 1 0 0 0 0 0 0 0 4 4 36 42 58 90 45 45 26 0 0 0 0 0 0 0 0 0 0 0 0 0 0 0 0 0 0 0 0 0 0 0
0 1 0 0 0 0 0 0 0 0 0 0 0 11 30 6 76 47 37 39 10 0 0 0 0 0 0 0 0 0 0 0 0 0 0 0 0 0 0 0 0 0 0
0 0 0 0 0 0 0 0 0 0 0 0 0 0 0 1 6 69 51 28 9 0 0 0 0 0 0 0 0 0 0 0 0 0 0 0 0 0 0 0 0 0 0
0 0 0 0 0 0 0 0 0 0 0 0 0 0 0 0 23 39 51 20 13 9 1 0 0 0 0 0 0 0 0 0 0 0 0 0 0 0 0 0 0 0 0
0 0 0 0 0 0 0 0 0 0 0 0 0 0 0 0 57 68 48 32 3 9 1 0 0 0 0 0 0 0 0 0 0 0 0 0 0 0 0 0 0 0 0
0 0 0 0 0 0 0 0 0 0 0 0 0 0 0 0 11 45 70 68 55 31 2 2 0 0 0 0 0 0 0 0 0 0 0 0 0 0 0 0 0 0 0
0 0 0 0 0 0 0 0 0 0 0 0 0 0 0 0 0 12 48 63 48 30 5 0 0 0 0 0 0 0 0 0 0 0 0 0 0 0 0 0 0 0 0
CIN
-29 -37 -130 -203 -147 -53 -81 -138 -154 -164 -247 -250 -152 -88 -67 -41 -39 -54 -145 -231 -0 -0 -0 -0 -0 -0 -0 -0 -0 -0 -0 -2 -1 -0 -0 -0 -0 -0 -0 -0 -2 -2 -1
-55 -8 -88 -130 -157 -59 -76 -108 -125 -127 -160 -201 -132 -44 -67 -77 -74 -100 -132 -0 -0 -0 -0 -0 -0 -0 -0 -0 -0 -0 -0 -0 -0 -3 -1 -1 -0 -2 -0 -0 -1 -3 -1
-59 -2 -9 -34 -93 -6 -28 -110 -107 -106 -113 -93 -40 -39 -85 -128 -154 -156 -0 -0 -0 -0 -0 -0 -0 -0 -0 -0 -0 -0 -1 -0 -0 -0 -0 -3 -2 -0 -1 -1 -4 -1 -3
-159 -177 -23 -6 -109 -105 -1 -58 -111 -118 -150 -96 -41 -47 -92 -155 -222 -252 -86 -0 -0 -0 -0 -0 -0 -0 -0 -0 -0 -1 -0 -0 -0 -0 -0 -0 -1 -0 -1 -0 -1 -1 -1
-346 -366 -197 -49 -51 -138 -165 -0 -68 -52 -45 -2 -0 -23 -66 -153 -244 -265 -149 -0 -0 -0 -0 -0 -0 -0 -0 -0 -0 -0 -0 -0 -0 -0 -0 -0 -1 -1 -0 -0 -1 -1 -4
-300 -350 -269 -183 -40 -50 -185 -30 -4 -89 -56 -2 -0 -3 -19 -129 -200 -204 -0 -0 -0 -0 -0 -0 -0 -0 -0 -0 -0 -0 -0 -0 -0 -0 -0 -0 -2 -0 -1 -0 -0 -1 -1
-194 -40 -82 -50 -203 -15 -3 -0 -17 -70 -33 -0 -0 -0 -6 -93 -131 -155 -0 -0 -0 -0 -0 -0 -0 -0 -0 -0 -0 -0 -0 -0 -0 -0 -0 -0 -1 -0 -0 -1 -1 -1 -2
-163 -204 -137 -109 -0 -1 -1 -1 -107 -71 -59 -1 -1 -0 -0 -34 -78 -0 -0 -0 -0 -0 -0 -0 -0 -0 -0 -0 -0 -0 -0 -0 -0 -0 -0 -0 -0 -1 -1 -0 -1 -0 -1
-189 -296 -187 -0 -0 -2 -67 -60 -10 -17 -3 -3 -1 -0 -0 -34 -4 -0 -0 -0 -0 -0 -0 -0 -0 -0 -0 -0 -0 -0 -0 -0 -0 -0 -0 -0 -0 -1 -1 -0 -0 -1 -1
-278 -303 -0 -0 -0 -0 -0 -23 -7 -4 -4 -4 -4 -0 -3 -0 -0 -0 -0 -0 -0 -0 -0 -0 -0 -0 -0 -0 -0 -0 -0 -0 -0 -0 -0 -0 -0 -0 -0 -1 -1 -0 -0
-163 -0 -0 -0 -0 -0 -0 -0 -0 -16 -5 -6 -12 -24 -36 -0 -0 -0 -0 -0 -0 -0 -0 -0 -0 -0 -0 -0 -0 -0 -0 -0 -0 -0 -0 -0 -0 -0 -0 -0 -0 -0 -0
-209 -0 -0 -0 -0 -0 -0 -0 -0 -0 -34 -40 -64 -108 -109 -0 -0 -0 -0 -0 -0 -0 -0 -0 -0 -0 -0 -0 -0 -0 -0 -0 -0 -0 -0 -0 -0 -0 -0 -0 -0 -0 -0
-27 -0 -0 -0 -0 -0 -0 -0 -0 -0 -0 -72 -113 -115 -139 -0 -0 -0 -0 -0 -0 -0 -0 -0 -0 -0 -0 -0 -0 -0 -0 -0 -0 -0 -0 -0 -0 -0 -0 -0 -0 -0 -0
-0 -0 -0 -0 -0 -0 -0 -0 -0 -0 -0 -5 -106 -110 -122 -0 -0 -0 -0 -0 -0 -0 -0 -0 -0 -0 -0 -0 -0 -0 -0 -0 -0 -0 -0 -0 -0 -1 -0 -0 -1 -1 -0
-0 -0 -0 -0 -0 -0 -0 -0 -0 -0 -0 -0 -0 -94 -141 -0 -0 -0 -0 -0 -0 -0 -0 -0 -0 -0 -0 -0 -0 -0 -0 -0 -0 -0 -0 -0 -0 -0 -0 -1 -1 -0 -0
-0 -0 -0 -0 -0 -0 -0 -0 -0 -0 -0 -0 -113 -161 -0 -0 -0 -0 -0 -0 -0 -0 -0 -0 -0 -0 -0 -0 -0 -0 -0 -0 -0 -0 -0 -0 -0 -0 -0 -0 -0 -0 -0
-0 -0 -0 -0 -1 -0 -0 -0 -0 -38 -0 -75 -90 -0 -12 -0 -0 -0 -0 -0 -0 -0 -0 -0 -0 -0 -0 -0 -0 -0 -0 -0 -0 -0 -0 -0 -0 -0 -0 -0 -0 -0 -0
-0 -0 -0 -0 -0 -0 -0 -0 -38 -0 -0 -49 -56 -65 -16 -138 -8 -0 -0 -0 -0 -0 -0 -0 -0 -0 -0 -0 -0 -0 -0 -0 -0 -0 -0 -0 -0 -0 -0 -0 -0 -0 -0
-0 -0 -0 -0 -0 -0 -0 -0 -28 -0 -0 -53 -61 -60 -69 -84 -132 -161 -129 -109 -98 -0 -0 -0 -0 -0 -0 -0 -0 -0 -0 -0 -0 -0 -0 -0 -0 -0 -0 -0 -0 -0 -0
-0 -0 -0 -0 -0 -0 -0 -0 -0 -0 -0 -76 -76 -52 -58 -80 -72 -90 -87 -120 -0 -0 -0 -0 -0 -0 -0 -0 -0 -0 -0 -0 -0 -0 -0 -0 -0 -0 -0 -0 -0 -0 -0
-3 -0 -0 -0 -0 -0 -0 -0 -0 -0 -0 -0 -66 -72 -48 -70 -32 -59 -98 -114 -169 -0 -0 -0 -0 -0 -0 -0 -0 -0 -0 -0 -0 -0 -0 -0 -0 -0 -0 -0 -0 -0 -0
-0 -0 -0 -0 -0 -0 -0 -0 -0 -0 -0 -0 -0 -0 -0 -22 -57 -56 -82 -110 -114 -0 -0 -0 -0 -0 -0 -0 -0 -0 -0 -0 -0 -0 -0 -0 -0 -0 -0 -0 -0 -0 -0
-0 -0 -0 -0 -0 -0 -0 -0 -0 -0 -0 -0 -0 -0 -0 -21 -54 -69 -83 -85 -96 -126 -50 -0 -0 -0 -0 -0 -0 -0 -0 -0 -0 -0 -0 -0 -0 -0 -0 -0 -0 -0 -0
-0 -0 -0 -0 -0 -0 -0 -0 -0 -0 -0 -0 -0 -0 -0 -55 -65 -61 -70 -84 -100 -104 -90 -0 -0 -0 -0 -0 -0 -0 -0 -0 -0 -0 -0 -0 -0 -0 -0 -0 -0 -0 -0
-0 -0 -0 -0 -0 -0 -0 -0 -0 -0 -0 -0 -0 -0 -0 -0 -102 -73 -62 -67 -75 -89 -129 -127 -0 -0 -0 -0 -0 -0 -0 -0 -0 -0 -0 -0 -0 -0 -0 -0 -0 -0 -0
-0 -0 -0 -0 -0 -0 -0 -0 -0 -0 -0 -0 -0 -0 -0 -0 -36 -102 -75 -70 -101 -93 -106 -0 -0 -0 -0 -0 -0 -0 -0 -0 -0 -0 -0 -0 -0 -0 -0 -0 -0 -0 -0
Wind_Speed
10 4 2 7 1 3 5 5 4 4 8 11 12 15 17 17 18 18 19 19 19 18 19 19 20 21 22 23 24 24 23 24 24 24 25 25 24 24 24 23 23 24 24
6 6 3 2 7 9 7 8 6 4 6 10 12 15 17 18 18 19 19 19 19 18 19 19 20 21 21 22 23 23 23 23 22 23 23 24 24 25 25 24 25 24 24
4 3 2 2 5 5 13 10 8 7 6 8 11 15 17 18 19 19 19 19 18 18 18 19 19 19 19 19 18 22 22 22 22 22 22 21 22 24 24 24 24 24 24
1 2 3 3 6 6 24 13 11 9 8 10 13 15 17 19 20 20 19 19 18 18 18 18 18 18 18 18 17 18 20 20 21 20 20 20 22 23 23 23 23 23 24
11 17 9 7 11 9 12 24 14 11 9 8 11 15 17 19 21 20 20 18 17 18 18 17 18 17 16 17 20 21 20 20 20 20 20 21 21 22 22 22 21 22 23
23 28 23 15 14 15 22 33 16 14 12 11 11 14 16 19 19 18 18 17 16 16 16 16 15 16 16 18 18 19 19 20 20 20 20 20 21 21 21 21 21 21 22
12 14 10 8 9 15 18 22 18 15 13 12 12 14 15 17 18 17 16 16 16 16 15 14 13 15 15 15 16 17 19 19 19 18 19 19 20 20 21 21 22 23 24
9 7 4 0 12 15 19 22 22 18 14 13 14 14 15 16 16 16 15 15 16 16 14 13 12 14 15 14 15 16 17 19 18 18 17 18 19 20 20 21 22 23 24
9 8 10 5 7 15 28 23 18 17 19 17 16 15 14 14 15 15 15 15 15 15 14 13 12 12 15 16 16 17 16 18 18 18 18 17 18 19 20 22 22 23 24
10 11 8 8 5 17 15 3 12 17 19 18 16 15 13 14 13 13 14 15 15 14 14 15 12 10 14 15 16 14 15 15 18 18 17 17 17 19 20 20 21 23 23
14 13 10 10 9 10 11 1 5 16 16 16 15 15 12 12 12 10 12 14 16 19 16 14 13 11 13 15 13 13 13 14 15 17 16 17 17 17 18 19 21 22 23
15 12 8 8 8 10 11 9 21 15 11 12 14 13 11 11 11 12 12 10 11 17 18 15 12 11 11 11 8 9 11 13 15 15 15 15 16 17 18 18 20 21 22
12 8 7 7 9 10 15 18 17 23 11 11 12 12 12 12 11 12 8 8 7 13 14 13 11 10 10 8 7 9 11 12 13 14 14 14 15 16 16 17 18 19 20
11 7 5 3 7 12 17 20 23 23 14 13 16 15 12 10 11 15 15 8 9 9 11 12 11 9 8 8 8 9 10 11 12 12 13 13 14 14 14 15 16 17 18
9 6 3 3 5 9 16 13 17 12 11 15 17 14 16 15 17 14 16 10 9 7 9 9 8 8 9 8 9 9 9 9 10 11 12 13 13 13 13 13 14 15 16
8 6 3 6 8 9 10 10 7 6 14 14 12 13 13 13 13 12 11 9 7 6 6 5 8 8 9 9 9 9 10 9 10 11 12 12 12 12 11 11 11 13 14
9 6 4 9 6 8 6 10 8 10 13 10 10 14 13 16 14 11 8 5 6 3 3 11 12 10 10 10 9 11 10 10 10 10 11 11 9 9 10 10 10 11 12
10 9 6 9 9 7 10 9 9 12 11 11 13 11 12 13 10 8 5 6 9 7 15 16 10 12 8 9 11 10 10 10 10 10 10 10 9 8 9 9 10 10 11
13 15 9 10 11 9 7 8 10 8 11 10 11 10 9 7 6 5 4 10 16 22 12 10 15 10 10 15 14 10 8 9 8 9 8 8 9 8 9 9 9 10 11
16 16 14 11 12 12 7 8 9 8 10 10 8 6 6 8 17 17 33 28 25 8 9 15 12 11 16 15 12 10 8 5 7 8 9 7 8 9 10 10 9 12 12
18 19 20 22 15 14 11 13 14 14 8 11 20 16 28 36 36 35 32 29 24 11 9 7 13 17 20 18 17 18 13 11 11 10 9 8 9 9 10 9 11 12 13
23 25 27 29 29 32 30 25 24 24 32 38 38 37 36 36 35 33 32 22 5 8 11 5 7 18 19 15 18 21 23 24 20 15 14 13 11 9 10 10 11 13 15
26 28 29 31 33 35 35 33 34 35 35 39 40 38 37 35 33 28 26 17 23 4 4 14 12 12 15 18 17 20 23 25 24 23 18 18 17 18 14 13 15 15 16
27 29 29 29 31 33 34 33 33 35 35 37 37 36 35 33 30 26 23 22 23 14 18 10 4 7 13 16 17 18 20 21 21 24 19 22 19 19 19 18 19 18 19
26 27 28 28 29 32 33 31 31 31 31 31 32 33 33 33 29 27 27 23 20 11 8 7 6 8 9 13 14 18 15 16 18 21 23 24 21 21 21 20 20 23 22
22 24 25 26 28 30 30 30 28 28 27 27 25 26 29 28 27 22 21 16 11 7 8 7 8 8 9 11 13 15 14 16 17 18 18 19 23 24 23 24 24 23 24
Wind_Direction
288 284 181 125 239 215 231 224 194 140 111 99 92 92 92 90 88 85 84 81 80 78 75 72 69 67 65 64 63 61 57 56 54 53 53 51 49 46 45 42 40 41 41
323 291 273 202 183 219 214 214 200 177 125 109 101 98 96 92 88 87 86 83 81 78 77 74 70 68 66 65 65 62 58 55 51 47 46 49 48 49 47 46 45 43 41
341 360 288 192 177 204 232 210 196 176 141 115 107 105 100 96 93 89 86 84 81 79 77 75 72 66 62 59 59 68 54 53 49 47 46 41 44 46 44 44 45 44 41
110 310 289 233 199 194 244 218 189 170 146 128 118 111 106 101 98 95 89 85 82 80 78 76 70 64 58 52 51 68 60 51 46 42 39 40 42 44 45 45 42 41 40
271 282 266 235 249 234 203 224 201 182 165 144 127 116 110 105 101 97 94 87 82 81 79 74 69 61 47 60 64 65 59 49 46 42 42 41 43 46 43 41 39 38 39
278 276 267 235 223 220 246 236 204 180 169 155 140 124 115 108 104 100 95 89 83 79 76 73 64 51 46 68 62 58 54 52 47 43 41 43 46 44 42 42 41 37 35
302 295 283 237 243 225 168 186 181 174 168 160 149 130 119 113 107 102 95 89 83 77 71 66 57 45 47 61 59 54 52 51 47 42 41 41 42 43 41 42 42 42 42
334 344 8 62 304 347 206 183 180 177 174 170 146 133 125 116 109 104 97 89 83 76 69 62 55 47 43 55 57 54 53 51 45 43 39 40 44 42 42 42 42 43 41
336 320 292 142 282 337 323 182 180 169 162 153 144 136 129 120 112 104 97 89 81 74 66 61 60 45 40 52 66 61 51 50 48 47 43 37 43 42 44 46 43 42 42
330 314 315 310 331 316 359 26 191 177 156 152 147 136 132 120 114 106 97 90 82 73 66 63 55 35 33 42 72 59 51 44 50 48 43 41 40 41 44 43 42 42 39
326 336 344 334 343 352 12 251 167 212 174 154 150 136 138 125 119 109 102 93 87 81 72 60 52 32 28 36 60 57 44 45 44 48 46 46 43 40 39 44 46 47 45
326 344 13 31 57 69 68 87 107 150 173 165 172 164 142 136 125 116 107 100 88 83 74 58 34 21 20 21 26 33 30 43 46 45 43 41 42 43 46 47 49 44 43
345 8 16 52 84 96 101 110 118 119 137 151 163 165 148 134 127 119 117 101 86 75 68 51 32 19 10 341 352 24 29 40 43 37 42 41 40 41 44 47 48 43 37
343 1 29 78 103 115 124 130 126 122 130 138 140 141 149 140 131 120 116 104 83 74 62 58 39 4 337 314 349 17 26 36 32 38 37 41 39 39 41 44 39 37 36
352 356 7 117 141 132 134 137 125 125 135 132 134 144 137 137 129 123 120 103 92 73 56 50 21 322 302 321 323 355 14 13 20 30 35 41 37 39 41 40 44 38 33
1 13 58 122 144 144 141 182 174 179 138 139 152 149 146 143 137 131 121 108 101 80 56 358 306 314 318 332 324 324 338 7 19 25 25 28 37 48 47 44 39 30 28
25 22 113 123 133 158 182 203 187 156 146 158 162 140 146 135 136 131 129 121 112 64 338 271 279 297 314 323 328 308 335 1 7 13 15 19 35 47 44 42 35 28 27
68 60 113 135 139 139 147 166 156 145 150 152 148 152 145 138 139 141 137 131 120 272 253 259 291 294 333 330 315 329 343 3 11 6 10 8 12 25 26 26 20 18 16
91 94 98 126 131 144 176 167 159 162 149 178 154 152 149 154 170 182 172 134 242 236 269 286 281 309 318 296 303 331 349 354 2 4 6 7 3 5 6 6 4 4 0
100 101 95 121 127 132 157 182 197 187 198 206 215 189 219 219 239 236 196 220 232 276 280 277 292 305 295 302 318 327 336 350 344 343 340 343 343 345 345 346 349 346 346
106 104 111 119 118 127 132 138 154 163 185 218 232 228 221 196 189 189 215 226 247 270 280 297 297 289 288 300 311 309 317 320 319 322 320 321 326 329 333 335 336 337 340
134 137 136 139 140 148 142 136 139 144 162 180 198 197 195 193 191 191 196 178 179 275 286 287 297 296 297 305 309 309 307 308 307 307 310 310 314 322 323 322 324 323 328
149 150 150 152 154 158 159 156 161 170 184 182 187 188 196 195 188 180 181 164 181 195 234 287 294 301 304 306 305 310 312 314 311 309 297 303 308 310 317 312 314 314 316
158 158 156 155 159 163 161 158 160 163 167 175 181 191 200 197 190 184 183 184 186 176 185 185 267 296 305 309 314 315 315 316 318 313 317 310 309 307 312 314 314 314 311
159 159 159 159 161 164 163 161 160 164 169 172 179 188 196 200 194 193 194 192 191 195 206 219 271 284 295 309 307 315 315 316 315 312 308 308 319 317 317 315 316 315 313
159 160 159 161 164 164 165 167 168 170 173 176 177 185 194 194 196 193 194 194 204 225 224 253 277 277 292 303 301 311 300 311 312 311 308 307 309 317 323 324 321 320 319